Simultaneous Nadir Overpasses (SNOs) Predictions

Prediction of SNOs between AQUA and METOP-B Satellite Orbit:

Table of predicted SNOs for the next 14.0 days since TLE Epoch: 1/23/2016
Index Date (AQUA) Time (AQUA) Lat,Lon (AQUA) SZA (AQUA ) Date (METOP-B) Time (METOP-B) Lat,Lon (METOP-B) SZA (METOP-B ) Distance(km) Time Diff (sec)
1 01/24/2016 00:34:46 73.78, 165.61 93.24 01/24/2016 00:33:49 73.79, 165.59 93.27 2.13 57
2 01/24/2016 01:24:13 -73.85, -26.90 86.70 01/24/2016 01:24:30 -73.83, -26.99 86.71 3.12 17
3 01/24/2016 02:13:51 74.39, 139.48 93.89 01/24/2016 02:14:58 74.41, 141.79 93.82 69.07 67
4 01/26/2016 20:09:02 73.81,-128.02 92.60 01/26/2016 20:08:09 73.81,-127.97 92.60 1.62 53
5 01/26/2016 20:58:29 -73.88, 39.47 87.34 01/26/2016 20:58:49 -73.89, 39.56 87.33 3.46 20
6 01/26/2016 21:48:10 74.58,-154.54 93.42 01/26/2016 21:49:15 74.57,-151.39 93.28 92.94 65
7 01/29/2016 15:43:17 73.81, -61.58 91.87 01/29/2016 15:42:29 73.81, -61.55 91.88 1.06 48
8 01/29/2016 16:32:44 -73.88, 105.91 88.07 01/29/2016 16:33:10 -73.85, 105.87 88.10 3.10 26
9 02/01/2016 11:17:31 73.83, 4.82 91.12 02/01/2016 11:16:48 73.82, 4.86 91.11 2.22 43
10 02/01/2016 12:06:58 -73.90, 172.31 88.82 02/01/2016 12:07:28 -73.90, 172.40 88.82 2.85 30
11 02/04/2016 06:51:45 73.82, 71.29 90.29 02/04/2016 06:51:08 73.81, 71.26 90.30 1.02 37
12 02/04/2016 07:41:12 -73.88,-121.21 89.65 02/04/2016 07:41:48 -73.90,-121.20 89.64 2.34 36




NCC Satellite Simultaneous Nadir Overpasses (SNOs) Prediction Service
